Location: Central Falls
(41.8900°N, 71.3929°W)
Time: 12:00:01
(UTC+00:00)

A-11 Canister half - Pass Details

Date: 04 December 2023
Orbit: 1526 x 1682 km, 47.3° (Epoch: 20 February)

Event Time Altitude Azimuth Distance (km) Brightness Sun altitude
Rises 00:42:52 0° 243° (WSW) 4,923 12.4 -38.0°
Reaches altitude 10° 00:46:01 10° 243° (WSW) 3,939 11.7 -38.6°
Enters shadow 00:55:08 76° 248° (WSW) 1,721 9.1 -40.3°
Maximum altitude 00:56:13 89° 332° (NNW) 1,677 - -40.5°
Drops below altitude 10° 01:06:17 10° 66° (ENE) 3,891 - -42.3°
Sets 01:09:23 0° 67° (ENE) 4,861 - -42.9°
